Home   Weather   Brandon   Past weeks

Flag for Canada Past Weather in Brandon, Manitoba, Canada — Yesterday and Last 2 Weeks

36 °F

Passing clouds.

Feels Like: 29 °F
Forecast: 33 / 52 °F
Wind: 9 mph from West

Location: Brandon

Current Time: Oct 27, 2016 at 4:13:55 AM

Latest Report: Oct 27, 2016 at 3:00 AM

Visibility: 15 mi

Pressure: 30.09 "Hg

Humidity: 93%

Dew Point: 34 °F

Location of BrandonLocation

Past Weather in Brandon — Graph


Brandon Temperature Yesterday

Maximum temperature yesterday: 48 °F (at 3:00 PM)
Minimum temperature yesterday: 39 °F (at 11:00 PM)
Average temperature yesterday: 44 °F

High & Low Weather Summary for the Past Weeks

High59 °F (Oct 14, 4:00 PM)100% (Oct 16, 7:00 PM)30.47 "Hg (Oct 16, 7:00 PM)
Low21 °F (Oct 13, 5:00 AM)49% (Oct 12, 3:00 PM)29.35 "Hg (Oct 17, 3:00 AM)
Average39 °F81%29.99 "Hg
* Reported Oct 12 3:00 AM — Oct 27 3:00 AM, Brandon, Weather by CustomWeather, © 2016

Note: Actual official high and low records may vary slightly from our data, if they occured in-between our weather recording intervals... More about our weather records


Brandon Weather History for the Previous 24 Hours

Scroll right to see more
Time TempWeatherWind HumidityBarometerVisibility
3:00 AM
Thu, Oct 27
36 °FPassing clouds.9 mph93%30.09 "Hg15 mi
2:00 AM36 °FPassing clouds.8 mph93%30.09 "Hg15 mi
1:00 AM37 °FPassing clouds.9 mph93%30.08 "Hg15 mi
12:00 AM37 °FPassing clouds.10 mph93%30.07 "Hg15 mi
11:00 PM
Wed, Oct 26
39 °FPassing clouds.10 mph87%30.07 "Hg15 mi
10:00 PM41 °FPassing clouds.8 mph93%30.08 "Hg15 mi
9:00 PM43 °FOvercast.16 mph87%30.09 "Hg15 mi
8:00 PM45 °FOvercast.16 mph87%30.07 "Hg15 mi
7:00 PM46 °FOvercast.14 mph87%30.05 "Hg12 mi
6:00 PM48 °FOvercast.10 mph82%30.04 "Hg10 mi
5:00 PM48 °FOvercast.13 mph87%30.03 "Hg8 mi
4:00 PM48 °FMore clouds than sun.12 mph87%30.03 "Hg15 mi
3:00 PM48 °FOvercast.12 mph87%30.04 "Hg10 mi
2:00 PM46 °FOvercast.12 mph93%30.04 "Hg12 mi
1:00 PM46 °FLow clouds.10 mph93%30.06 "Hg12 mi
12:00 PM45 °FFog.10 mph93%30.09 "Hg6 mi
11:46 AM45 °FFog.9 mph93%30.09 "Hg6 mi
11:00 AM43 °FFog.8 mph100%30.09 "Hg4 mi
10:46 AM43 °FFog.8 mph93%30.09 "Hg4 mi
10:00 AM43 °FFog.8 mph93%30.10 "Hg1 mi
9:47 AM41 °FFog.8 mph100%30.10 "Hg1 mi
9:00 AM41 °FDrizzle. Fog.9 mph100%30.09 "Hg1 mi
8:00 AM41 °FDrizzle. Fog.8 mph93%30.11 "Hg3 mi
7:00 AM41 °FLow clouds.9 mph93%30.12 "Hg10 mi
6:00 AM41 °FLow clouds.9 mph93%30.14 "Hg10 mi
5:00 AM41 °FLight rain. Low clouds.14 mph100%30.11 "Hg10 mi
4:00 AM41 °FLight rain. Overcast.9 mph100%30.14 "Hg10 mi
Weather by CustomWeather, © 2016

See weather overviewHow to use our weather pages